Location: Ladrillo (historical)
(32.8195°N, 117.2231°W)
Time: 10:15:33
(UTC+00:00)

Courier 1B - Pass Details

Date: 13 March 2021
Orbit: 963 x 1209 km, 28.3° (Epoch: 14 April)

Event Time Altitude Azimuth Distance (km) Brightness Sun altitude
Rises 10:41:06 0° 231° (SW) 3,961 - -41.5°
Reaches altitude 10° 10:44:12 10° 223° (SW) 2,964 - -40.9°
Maximum altitude 10:50:37 34° 160° (SSE) 1,659 - -39.7°
Exits shadow 10:53:28 25° 119° (ESE) 1,958 9.2 -39.2°
Drops below altitude 10° 10:56:42 10° 98° (E) 2,806 10.4 -38.6°
Sets 10:59:33 0° 89° (E) 3,725 11.3 -38.0°
